Location: DARK SKY Beskydy - Park tmavé oblohy, www.darkskybeskydy.cz
(49.4926°N, 18.5016°E)
Time: 14:22:37
(UTC+01:00)

Vanguard 1 - Pass Details

Date: 14 November 2025
Orbit: 650 x 3821 km, 34.2° (Epoch: 07 December)

Event Time Altitude Azimuth Distance (km) Brightness Sun altitude
Rises 20:12:53 0° 265° (W) 7,775 15.4 -39.9°
Reaches altitude 10° 20:18:19 10° 261° (W) 6,880 14.9 -40.7°
Maximum altitude 20:39:40 47° 197° (SSW) 4,189 12.9 -43.9°
Enters shadow 20:42:04 46° 182° (S) 4,122 12.8 -44.2°
